Location: Elstree
(51.6403°N, 0.2969°W)
Time: 23:28:31
(UTC+00:00)

FALCON 9 DEB - Visible Passes

Search period start: 21 June 2021 00:00
Search period end: 01 July 2021 00:00
Orbit: 422 x 434 km, 53.0° (Epoch: 21 June)

Date Brightness Start Highest point End Pass type
(mag) Time Alt. Az. Time Alt. Az. Time Alt. Az.
21 Jun 3.0 00:47:03 10° WNW 00:50:26 62° SSW 00:53:47 10° ESE visible
21 Jun 4.7 02:24:40 10° W 02:26:48 16° SW 02:28:54 10° S visible
21 Jun 3.5 22:25:25 10° W 22:28:49 68° N 22:32:14 10° E visible
22 Jun 2.9 00:02:22 10° WNW 00:05:48 78° SSW 00:09:11 10° ESE visible
22 Jun 4.3 01:39:37 10° W 01:42:19 22° SW 01:43:08 20° SSW visible
22 Jun 3.4 21:40:42 10° W 21:44:07 71° N 21:47:33 10° E visible
22 Jun 3.0 23:17:42 10° WNW 23:21:09 87° NNE 23:24:33 10° ESE visible
23 Jun 3.9 00:54:45 10° W 00:57:48 30° SSW 00:58:17 29° SSW visible
23 Jun 3.2 22:33:01 10° WNW 22:36:27 76° N 22:39:52 10° E visible
24 Jun 3.5 00:10:00 10° W 00:13:14 41° SSW 00:14:08 33° S visible
24 Jun 3.4 21:48:19 10° W 21:51:45 70° N 21:55:09 10° E visible
24 Jun 3.2 23:25:16 10° WNW 23:28:38 55° SSW 23:30:16 26° SE visible
25 Jun 5.5 01:03:09 10° WSW 01:03:21 11° WSW 01:03:21 11° WSW visible
25 Jun 3.0 22:40:34 10° WNW 22:43:59 72° SSW 22:46:35 16° ESE visible
26 Jun 4.9 00:17:56 10° W 00:19:41 18° WSW 00:19:41 18° WSW visible
26 Jun 3.1 21:55:52 10° WNW 21:59:19 88° SSW 22:02:44 10° ESE visible
26 Jun 4.2 23:32:59 10° W 23:35:54 26° SW 23:36:06 26° SSW visible
27 Jun 3.2 21:11:11 10° WNW 21:14:37 80° NNE 21:18:02 10° E visible
27 Jun 3.8 22:48:10 10° W 22:51:20 36° SSW 22:52:36 26° SSE visible
28 Jun 3.4 22:03:24 10° WNW 22:06:44 49° SSW 22:09:09 17° SE visible
28 Jun 5.5 23:41:40 10° WSW 23:42:16 11° WSW 23:42:16 11° WSW visible
29 Jun 3.2 21:18:40 10° WNW 21:22:05 65° SSW 21:25:28 10° ESE visible
29 Jun 4.9 22:56:12 10° W 22:58:29 17° SW 22:58:53 17° SSW visible
30 Jun 4.6 22:11:10 10° W 22:13:57 23° SW 22:15:32 17° S visible
